Location: Unspecified
(35.6961°N, 0.0000°E)
Time: 02:13:03
(UTC+00:00)

Altair - Pass Details

Date: 23 May 2019
Orbit: 1501 x 1683 km, 47.2° (Epoch: 23 June)

Event Time Altitude Azimuth Distance (km) Brightness Sun altitude
Rises 05:18:36 0° 262° (W) 4,915 9.5 4.5°
Reaches altitude 10° 05:21:55 10° 268° (W) 3,937 9.1 5.1°
Maximum altitude 05:31:44 51° 342° (NNW) 2,034 8.3 7.0°
Drops below altitude 10° 05:41:30 10° 57° (ENE) 3,911 11.7 8.9°
Sets 05:44:48 0° 63° (ENE) 4,881 12.3 9.5°
